STARLINK-11532 [DTC] (62596 NORAD) Tracking and Keplerian Element Data

This shows tracking and keplerian element data for the satellite.

Feedback or suggestion? Click here.




ElementValue
Catalog62596
NameSTARLINK-11532 [DTC]
Epoch Orbit433
Epoch Day34.83335648
Epoch Year2025
RAAN12.1786
Inclination43.0039
Eccentricity0.0001324
Argument of Perigee261.6163
Mean Anonmoly114.7754
Mean Motion15.77957168
Decay Rate-0.00058387
L11 62596U 25008K 25034.83335648 -.00058387 00000+0 -33343-3 0 9998
L22 62596 43.0039 12.1786 0001324 261.6163 114.7754 15.77957168 4334



Live tracking and technical data element details for STARLINK-11532 [DTC] (NORAD 62596). STARLINK-11532 [DTC] can be tracked NOW for your location showing map with azimuth and elevation plus other details from your city location.







IsCatalogInMostPopularTable: catalog: 62596, numindb: 3
Update: records affected: 1



GetName: 62596 STARLINK-11532 [DTC]

Hit Count: updated at: Sun, 09 Feb 2025 14:48:58 GMT